Tracking 20719 objects as of 26-May-2020
HD Live streaming from Space Station
objects crossing your sky now

MOS 1B (MOMO 1B)

Track MOS 1B (MOMO 1B) now!
10-day predictions
MOS 1B (MOMO 1B) is classified as:


NORAD ID: 20478
Int'l Code: 1990-013A
Perigee: 911.9 km
Apogee: 921.2 km
Inclination: 99.4 °
Period: 103.2 minutes
Semi major axis: 7287 km
RCS: 3.7354 m2 (large)
Launch date: February 7, 1990
Source: Japan (JPN)
Launch site: TANEGASHIMA SPACE CENTER (TNSTA)
aabbcc
Your satellite tracking list
Your tracking list is empty




NASA's NSSDC Master Catalog

Two Line Element Set (TLE):
1 20478U 90013A   20145.95337393 -.00000233  00000-0 -13694-3 0  9994
2 20478  99.4202 141.3976 0006403  75.8625 284.3247 13.95503862463360
Source of the keplerian elements: AFSPC